Adak, AK

6:46 PM HDT on August 26, 2016 (GMT -0900)
Adak

Weather History for PADK - February, 2013

Change the Weather History Date:

Tuesday, February 5, 2013

  Actual Average Record
Temperature  
Mean Temperature 32 °F -  
Max Temperature 37 °F 36 °F 45 °F (1957)
Min Temperature 28 °F 29 °F 15 °F (2016)
Degree Days  
Heating Degree Days 32    
Moisture  
Dew Point 29 °F    
Average Humidity 83    
Maximum Humidity 100    
Minimum Humidity 70    
Precipitation  
Precipitation 0.04 in - - ()
Sea Level Pressure  
Sea Level Pressure 29.45 in    
Wind  
Wind Speed 16 mph (ESE)    
Max Wind Speed 39 mph    
Max Gust Speed 53 mph    
Visibility 8 miles    
Events      
Averages and records for this station are not official NWS values.
T = Trace of Precipitation, MM = Missing Value Source: NWS Daily Summary

Daily Weather History Graph

Daily Weather History Graph

Search for Another Location

Airport or City:

Trip Planner

Search our weather history database for the weather conditions in past years. The results will help you decide how hot, cold, wet, or windy it might be!

Date:

Astronomy

Feb. 05, 2013 Rise Set
Actual Time 9:18 AM HST 6:43 PM HST
Civil Twilight 8:42 AM HST 7:19 PM HST
Nautical Twilight 8:02 AM HST 7:59 PM HST
Astronomical Twilight 7:23 AM HST 8:38 PM HST
Moon 5:30 AM HST (2/5) 1:59 PM HST (2/5)
Length of Visible Light 10h 36m
Length of Day
9h 24m
Waning Crescent, 24% of the Moon is Illuminated
Feb 5
Waning Crescent
Feb 9
New
Feb 17
First Quarter
Feb 25
Full
Mar 4
Last Quarter

Hourly Weather History & Observations

Time (HST) Temp. Windchill Dew Point Humidity Pressure Visibility Wind Dir Wind Speed Gust Speed Precip Events Conditions
12:16 AM 30.2 °F 22.6 °F 28.4 °F 93% 29.67 in 8.0 mi NE 8.1 mph - 0.02 in   Mostly Cloudy
12:36 AM 30.2 °F 21.3 °F 28.4 °F 93% 29.67 in 5.0 mi NNE 10.4 mph - 0.02 in   Overcast
12:56 AM 32.0 °F 22.1 °F 28.4 °F 87% 29.67 in 10.0 mi NE 13.8 mph - 0.02 in   Overcast
1:16 AM 30.2 °F 19.8 °F 28.4 °F 93% 29.68 in 10.0 mi NE 13.8 mph - N/A   Overcast
1:36 AM 30.2 °F 19.8 °F 28.4 °F 93% 29.69 in 10.0 mi NE 13.8 mph - N/A   Overcast
1:56 AM 32.0 °F 22.5 °F 26.6 °F 80% 29.69 in 10.0 mi NE 12.7 mph - N/A   Overcast
2:16 AM 32.0 °F 23.6 °F 26.6 °F 80% 29.70 in 10.0 mi NE 10.4 mph - N/A   Overcast
2:36 AM 32.0 °F 23.0 °F 26.6 °F 80% 29.70 in 10.0 mi ENE 11.5 mph - N/A   Overcast
2:56 AM 32.0 °F 22.5 °F 28.4 °F 87% 29.70 in 6.0 mi East 12.7 mph - N/A   Overcast
3:16 AM 30.2 °F 22.6 °F 28.4 °F 93% 29.70 in 1.8 mi ENE 8.1 mph - N/A   Overcast
3:36 AM 30.2 °F 22.6 °F 28.4 °F 93% 29.70 in 7.0 mi NNE 8.1 mph - N/A   Overcast
3:56 AM 30.2 °F 23.4 °F 28.4 °F 93% 29.71 in 5.0 mi North 6.9 mph - N/A   Overcast
4:16 AM 30.2 °F 25.4 °F 28.4 °F 93% 29.70 in 10.0 mi NNE 4.6 mph - N/A   Mostly Cloudy
4:36 AM 30.2 °F 25.4 °F 28.4 °F 93% 29.70 in 10.0 mi North 4.6 mph - 0.02 in   Overcast
4:56 AM 28.4 °F 22.2 °F 28.4 °F 100% 29.70 in 10.0 mi North 5.8 mph - 0.02 in   Overcast
5:16 AM 30.2 °F 26.7 °F 28.4 °F 93% 29.69 in 10.0 mi SE 3.5 mph - N/A   Overcast
5:36 AM 32.0 °F 24.2 °F 28.4 °F 87% 29.69 in 10.0 mi East 9.2 mph - N/A   Overcast
5:56 AM 32.0 °F 24.8 °F 28.4 °F 87% 29.69 in 10.0 mi SE 8.1 mph - N/A   Overcast
6:16 AM 32.0 °F 24.2 °F 26.6 °F 80% 29.69 in 10.0 mi SE 9.2 mph - N/A   Overcast
6:36 AM 30.2 °F - 26.6 °F 86% 29.69 in 10.0 mi Calm Calm - 0.01 in   Overcast
6:56 AM 32.0 °F 24.2 °F 26.6 °F 80% 29.68 in 10.0 mi ESE 9.2 mph - 0.02 in   Overcast
7:16 AM 33.8 °F 24.3 °F 28.4 °F 81% 29.67 in 10.0 mi ESE 13.8 mph - N/A   Overcast
7:36 AM 33.8 °F 24.3 °F 28.4 °F 81% 29.67 in 10.0 mi East 13.8 mph - N/A   Overcast
7:56 AM 33.8 °F 25.3 °F 28.4 °F 81% 29.66 in 10.0 mi East 11.5 mph - N/A   Overcast
8:16 AM 33.8 °F 23.9 °F 26.6 °F 75% 29.65 in 10.0 mi East 15.0 mph - N/A   Overcast
8:36 AM 33.8 °F 23.2 °F 28.4 °F 81% 29.63 in 10.0 mi East 17.3 mph - N/A   Overcast
8:56 AM 33.8 °F 23.5 °F 28.4 °F 81% 29.64 in 10.0 mi ESE 16.1 mph 20.7 mph N/A   Overcast
9:16 AM 33.8 °F 25.3 °F 28.4 °F 81% 29.64 in 10.0 mi ESE 11.5 mph - N/A   Overcast
9:36 AM 33.8 °F 25.3 °F 28.4 °F 81% 29.64 in 10.0 mi ESE 11.5 mph - N/A   Overcast
9:56 AM 33.8 °F 25.3 °F 30.2 °F 87% 29.64 in 7.0 mi ESE 11.5 mph - N/A   Overcast
10:16 AM 33.8 °F 25.8 °F 30.2 °F 87% 29.62 in 9.0 mi ESE 10.4 mph - N/A   Overcast
10:36 AM 33.8 °F 23.2 °F 30.2 °F 87% 29.62 in 10.0 mi SE 17.3 mph - N/A   Mostly Cloudy
10:56 AM 33.8 °F 25.8 °F 30.2 °F 87% 29.62 in 10.0 mi SSE 10.4 mph - N/A   Overcast
11:16 AM 35.6 °F 25.2 °F 28.4 °F 75% 29.61 in 10.0 mi SSE 18.4 mph 24.2 mph N/A   Overcast
11:36 AM 35.6 °F 26.6 °F 28.4 °F 75% 29.61 in 10.0 mi ESE 13.8 mph 21.9 mph N/A   Overcast
11:56 AM 35.6 °F 25.2 °F 28.4 °F 75% 29.59 in 10.0 mi ESE 18.4 mph - N/A   Overcast
12:16 PM 35.6 °F 27.5 °F 30.2 °F 81% 29.58 in 10.0 mi ESE 11.5 mph - N/A   Overcast
12:36 PM 35.6 °F 25.5 °F 28.4 °F 75% 29.55 in 10.0 mi ESE 17.3 mph - N/A   Overcast
12:56 PM 35.6 °F 25.2 °F 28.4 °F 75% 29.54 in 10.0 mi SE 18.4 mph 24.2 mph N/A   Overcast
1:16 PM 35.6 °F 24.8 °F 26.6 °F 70% 29.53 in 10.0 mi ESE 19.6 mph - N/A   Overcast
1:36 PM 35.6 °F 24.0 °F 26.6 °F 70% 29.51 in 10.0 mi ESE 23.0 mph 33.4 mph N/A   Overcast
1:56 PM 35.6 °F 24.5 °F 26.6 °F 70% 29.49 in 10.0 mi ESE 20.7 mph 26.5 mph N/A   Overcast
2:16 PM 35.6 °F 26.2 °F 28.4 °F 75% 29.47 in 10.0 mi East 15.0 mph 20.7 mph N/A   Overcast
2:36 PM 35.6 °F 24.8 °F 30.2 °F 81% 29.45 in 10.0 mi ESE 19.6 mph 28.8 mph N/A   Overcast
2:56 PM 35.6 °F 24.0 °F 28.4 °F 75% 29.43 in 10.0 mi ESE 23.0 mph 34.5 mph N/A   Overcast
3:16 PM 35.6 °F 23.2 °F 28.4 °F 75% 29.42 in 10.0 mi ESE 26.5 mph 31.1 mph N/A   Overcast
3:36 PM 35.6 °F 23.0 °F 28.4 °F 75% 29.41 in 10.0 mi SE 27.6 mph 35.7 mph N/A   Overcast
3:56 PM 35.6 °F 22.7 °F 28.4 °F 75% 29.37 in 10.0 mi ESE 28.8 mph 38.0 mph N/A   Overcast
4:16 PM 35.6 °F 21.7 °F 28.4 °F 75% 29.37 in 10.0 mi ESE 34.5 mph 43.7 mph N/A   Overcast
4:36 PM 35.6 °F 21.7 °F 30.2 °F 81% 29.35 in 10.0 mi ESE 34.5 mph 42.6 mph N/A   Overcast
4:56 PM 35.6 °F 21.9 °F 28.4 °F 75% 29.31 in 10.0 mi ESE 33.4 mph 41.4 mph N/A   Overcast
5:16 PM 35.6 °F 21.3 °F 30.2 °F 81% 29.30 in 5.0 mi ESE 36.8 mph 44.9 mph N/A   Overcast
5:36 PM 35.6 °F 21.7 °F 30.2 °F 81% 29.28 in 5.0 mi ESE 34.5 mph 47.2 mph N/A   Overcast
5:56 PM 35.6 °F 21.1 °F 30.2 °F 81% 29.26 in 2.5 mi ESE 38.0 mph 47.2 mph N/A   Overcast
6:16 PM 35.6 °F 21.1 °F 30.2 °F 81% 29.23 in 2.5 mi East 38.0 mph 47.2 mph N/A   Overcast
6:36 PM 35.6 °F 21.9 °F 30.2 °F 81% 29.21 in 1.8 mi East 33.4 mph 48.3 mph N/A   Overcast
6:56 PM 33.8 °F 19.2 °F 30.2 °F 87% 29.18 in 2.0 mi East 34.5 mph 42.6 mph 0.01 in   Overcast
7:16 PM 33.8 °F 19.9 °F 32.0 °F 93% 29.14 in 3.0 mi East 31.1 mph 41.4 mph N/A   Overcast
7:36 PM 35.6 °F 22.1 °F 32.0 °F 87% 29.13 in 3.0 mi East 32.2 mph 40.3 mph 0.02 in   Overcast
7:56 PM 35.6 °F 21.5 °F 32.0 °F 87% 29.10 in 2.5 mi ESE 35.7 mph 52.9 mph 0.04 in   Overcast
8:16 PM 35.6 °F 21.9 °F 32.0 °F 87% 29.07 in 3.0 mi ESE 33.4 mph 51.8 mph 0.02 in   Overcast
8:36 PM 35.6 °F 21.0 °F 32.0 °F 87% 29.05 in 2.5 mi ESE 39.1 mph 47.2 mph 0.04 in   Overcast
8:56 PM 35.6 °F 21.3 °F 32.0 °F 87% 29.01 in 2.5 mi ESE 36.8 mph 49.5 mph 0.07 in   Overcast
9:16 PM 35.6 °F 21.1 °F 32.0 °F 87% 28.98 in 3.0 mi ESE 38.0 mph 48.3 mph 0.02 in   Overcast
9:36 PM 35.6 °F 21.0 °F 32.0 °F 87% 28.96 in 3.0 mi ESE 39.1 mph 46.0 mph 0.03 in   Overcast
9:56 PM 35.6 °F 21.3 °F 32.0 °F 87% 28.94 in 3.0 mi ESE 36.8 mph 46.0 mph 0.04 in   Overcast
10:16 PM 35.6 °F 21.9 °F 32.0 °F 87% 28.92 in 2.5 mi ESE 33.4 mph 48.3 mph 0.16 in   Overcast
10:36 PM 35.6 °F 21.7 °F 33.8 °F 93% 28.89 in 2.5 mi SE 34.5 mph 44.9 mph 0.31 in   Overcast
10:56 PM 37.4 °F 23.5 °F 33.8 °F 87% 28.87 in 4.0 mi ESE 39.1 mph 46.0 mph 0.46 in   Overcast
11:16 PM 37.4 °F 24.4 °F 33.8 °F 87% 28.85 in 5.0 mi SE 33.4 mph 48.3 mph 0.16 in   Overcast
11:36 PM - - - N/A% - - North - - N/A   Unknown
11:56 PM 37.4 °F 24.8 °F 32.0 °F 81% 28.81 in 5.0 mi ESE 31.1 mph 35.7 mph 0.09 in   Overcast